Flag for U.S.A. Weather past 2 weeks in Port St. Lucie, Florida, U.S.A.

Now
70 °F

Clear.


Feels Like: 70 °F
Forecast: 72 / 89 °F
Wind: No wind

Location: Witham Field Airport

Current Time: Sep 15, 2014 at 5:37:05 AM

Latest Report: Sep 15, 2014 at 5:15 AM


Visibility: 10 mi

Pressure: 30.14 "Hg

Humidity: 100%

Dew point: 70 °F

Location of Port St. LucieLocation

Historic Weather in Port St. Lucie — Graph

°F

Port St. Lucie temperature yesterday

Maximum temperature yesterday: 86 °F (at 1:47 PM)
Minimum temperature yesterday: 70 °F (at 5:55 AM)
Average temperature yesterday: 74 °F

Past Weeks' High & Low Weather Summary

 TemperatureHumidityPressure
High88 °F (Aug 31, 12:47 PM)100% (Sep 4, 5:55 AM)30.17 "Hg (Sep 4, 5:55 AM)
Low45 °F (Sep 10, 8:47 AM)55% (Aug 31, 4:47 PM)29.91 "Hg (Sep 12, 3:55 AM)
Average77 °F85%30.05 "Hg
* Reported Aug 31 4:15 AM — Sep 15 4:35 AM, Port St. Lucie, Weather by CustomWeather, © 2014

Note: Actual official high and low records may vary slightly from our data, if they occured in-between our weather recording intervals... More about our weather records

Advertising

Port St. Lucie weather history for previous 24 hours

 ConditionsComfort  
Time TempWeatherWind HumidityBarometerVisibility
4:35 AM
Sep 15
70 °FClear.No wind100%30.13 "Hg10 mi
4:15 AM70 °FClear.No wind100%30.13 "Hg10 mi
3:55 AM70 °FClear.No wind100%30.13 "Hg10 mi
3:35 AM70 °FClear.No wind100%30.13 "Hg10 mi
3:15 AM70 °FClear.No wind100%30.14 "Hg10 mi
2:55 AM72 °FClear.No wind94%30.14 "Hg10 mi
2:35 AM72 °FClear.No wind94%30.14 "Hg10 mi
1:55 AM70 °FClear.No wind100%30.15 "Hg10 mi
1:35 AM72 °FClear.No wind94%30.16 "Hg10 mi
12:55 AM70 °FClear.No wind100%30.16 "Hg10 mi
12:35 AM72 °FClear.No wind94%30.16 "Hg10 mi
11:55 PM
Sep 14
72 °FClear.No wind94%30.17 "Hg10 mi
11:35 PM72 °FClear.No wind94%30.17 "Hg10 mi
11:15 PM72 °FClear.No wind94%30.17 "Hg10 mi
10:55 PM70 °FClear.No wind100%30.17 "Hg10 mi
10:35 PM72 °FClear.No wind94%30.17 "Hg10 mi
10:15 PM70 °FClear.No wind100%30.17 "Hg10 mi
9:55 PM72 °FClear.3 mph94%30.16 "Hg10 mi
9:35 PM72 °FClear.No wind94%30.15 "Hg10 mi
9:15 PM72 °FClear.No wind94%30.15 "Hg10 mi
8:55 PM70 °FPassing clouds.No wind94%30.14 "Hg10 mi
8:35 PM72 °FLight rain. Partly cloudy.5 mph88%30.13 "Hg10 mi
6:47 PMN/A18 mphN/AN/A7 mi
5:47 PM77 °FScattered showers. Partly sunny.12 mph74%30.13 "Hg7 mi
4:47 PM84 °FScattered clouds.17 mph70%30.11 "Hg7 mi
3:47 PM86 °FScattered clouds.13 mph59%30.11 "Hg7 mi
2:47 PM84 °FScattered clouds.13 mph62%30.12 "Hg7 mi
1:47 PM86 °FScattered clouds.13 mph62%30.13 "Hg7 mi
12:47 PM84 °FScattered clouds.7 mph66%30.14 "Hg7 mi
11:47 AM84 °FScattered clouds.7 mph58%30.16 "Hg7 mi
10:47 AM82 °FSunny.10 mph62%30.15 "Hg10 mi
9:47 AM81 °FSunny.No wind66%30.14 "Hg10 mi
8:47 AM75 °FScattered clouds.No wind83%30.12 "Hg7 mi
7:47 AM72 °FPassing clouds.5 mph100%30.11 "Hg7 mi
6:47 AM72 °FPassing clouds.No wind94%30.08 "Hg7 mi
6:15 AM70 °FClear.3 mph100%30.06 "Hg10 mi
5:55 AM70 °FClear.No wind100%30.06 "Hg10 mi
5:35 AM72 °FPassing clouds.No wind94%30.07 "Hg10 mi
5:15 AM72 °FPassing clouds.3 mph94%30.07 "Hg10 mi
Weather by CustomWeather, © 2014

See weather overviewHow to use our weather pages